Home > Weather > Duisburg > Past weeks

Flag for Germany Weather for the Past 2 Weeks in Duisburg, North Rhine-Westphalia, Germany

Now
46 °F

Light rain. Passing clouds.


Feels Like: 41 °F
Forecast: 42 / 50 °F
Wind: 10 mph from South

Location: Duesseldorf

Current Time: Apr 29, 2016 at 11:53:08 PM

Latest Report: Apr 29, 2016 at 11:20 PM


Visibility: N/A

Pressure: 29.98 "Hg

Humidity: 87%

Dew Point: 43 °F

Location of DuisburgLocation

Historic Weather in Duisburg — Graph

°F

Duisburg Temperature Yesterday

Maximum temperature yesterday: 50 °F (at 12:50 PM)
Minimum temperature yesterday: 37 °F (at 12:20 AM)
Average temperature yesterday: 42 °F

High & Low Weather Summary for the Past Weeks

 TemperatureHumidityPressure
High68 °F (Apr 21, 3:50 PM)100% (Apr 18, 12:20 AM)30.48 "Hg (Apr 18, 12:20 AM)
Low32 °F (Apr 18, 5:20 AM)34% (Apr 20, 4:50 PM)29.47 "Hg (Apr 16, 5:20 AM)
Average47 °F72%29.93 "Hg
* Reported Apr 14 10:20 PM — Apr 29 10:20 PM, Duisburg, Weather by CustomWeather, © 2016

Note: Actual official high and low records may vary slightly from our data, if they occured in-between our weather recording intervals... More about our weather records

Advertising

Duisburg Weather History for the Previous 24 Hours

Scroll right to see more
 ConditionsComfort  
Time TempWeatherWind HumidityBarometerVisibility
10:20 PM
Fri, Apr 29
46 °FLight rain. Partly cloudy.13 mph87%29.98 "HgN/A
9:50 PM46 °FLight rain. Partly sunny.10 mph87%30.01 "HgN/A
9:20 PM46 °FLight rain. Partly sunny.9 mph87%29.98 "HgN/A
8:50 PM46 °FPartly sunny.9 mph93%29.98 "HgN/A
8:20 PM46 °FRain. More clouds than sun.12 mph93%29.98 "Hg6 mi
7:50 PM45 °FLight rain. Mostly cloudy.7 mph93%29.98 "HgN/A
7:20 PM46 °FLight rain. Mostly cloudy.5 mph87%29.98 "HgN/A
6:50 PM46 °FLight rain. Mostly cloudy.7 mph87%29.98 "HgN/A
6:20 PM46 °FLight rain. Mostly cloudy.10 mph87%29.98 "HgN/A
5:50 PM48 °FLight rain. Mostly cloudy.13 mph76%29.98 "HgN/A
5:20 PM48 °FLight rain. Broken clouds.9 mph76%29.98 "HgN/A
4:50 PM48 °FBroken clouds.8 mph82%29.95 "HgN/A
4:20 PM50 °FLight rain. Broken clouds.9 mph76%29.95 "HgN/A
3:50 PM50 °FBroken clouds.6 mph76%29.95 "HgN/A
3:20 PM50 °FBroken clouds.7 mph76%29.95 "HgN/A
2:50 PM48 °FBroken clouds.7 mph82%29.95 "HgN/A
2:20 PM48 °FBroken clouds.10 mph82%29.95 "HgN/A
1:50 PM52 °FBroken clouds.17 mph58%29.92 "HgN/A
1:20 PM52 °FBroken clouds.21 mph58%29.92 "HgN/A
12:50 PM54 °FBroken clouds.21 mph51%29.92 "HgN/A
12:20 PM54 °FBroken clouds.18 mph54%29.92 "HgN/A
11:50 AM52 °FPartly sunny.18 mph58%29.92 "HgN/A
11:20 AM50 °FPartly sunny.18 mph58%29.92 "HgN/A
10:50 AM50 °FPartly sunny.17 mph62%29.92 "HgN/A
10:20 AM50 °FPartly sunny.18 mph62%29.92 "HgN/A
9:50 AM50 °FPartly sunny.18 mph62%29.92 "HgN/A
9:20 AM48 °FPassing clouds.17 mph62%29.95 "HgN/A
8:50 AM46 °FSunny.17 mph66%29.92 "Hg10 mi
8:20 AM45 °FSunny.14 mph71%29.92 "Hg10 mi
7:50 AM43 °FSunny.15 mph71%29.92 "Hg10 mi
7:20 AM43 °FSunny.12 mph71%29.92 "Hg10 mi
6:50 AM41 °FClear.15 mph76%29.92 "Hg10 mi
6:20 AM41 °FClear.15 mph76%29.92 "Hg10 mi
5:50 AM41 °FClear.15 mph76%29.92 "Hg10 mi
5:20 AM41 °FClear.13 mph81%29.92 "Hg10 mi
4:20 AM39 °FClear.15 mph87%29.95 "Hg10 mi
3:50 AM39 °FClear.12 mph87%29.95 "Hg10 mi
3:20 AM39 °FClear.10 mph87%29.95 "Hg10 mi
2:50 AM39 °FClear.12 mph93%29.95 "Hg10 mi
2:20 AM39 °FClear.12 mph93%29.95 "Hg10 mi
1:50 AM39 °FClear.13 mph93%29.95 "Hg10 mi
1:20 AM39 °FClear.12 mph93%29.98 "Hg10 mi
12:20 AM39 °FClear.10 mph93%29.98 "Hg10 mi
11:50 PM
Thu, Apr 28
39 °FClear.8 mph93%29.98 "Hg10 mi
11:20 PM39 °FClear.8 mph87%29.98 "Hg10 mi
Weather by CustomWeather, © 2016

See weather overviewHow to use our weather pages